EW4821 Weather Reports


time (UTC)temp
C
wind
direction
speed
KPH
gust
KPH
rain 1hr
cm
rain 24hr
cm
rain mn
cm
humidity
%
barometer
mb
20260505184517 26 175 16.1 35.4 0.00 0.00 0.00 39 1009.9
20260505183004 26 172 14.5 29.0 0.00 0.00 0.00 40 1010.1
20260505181510 26 166 11.3 27.4 0.00 0.00 0.00 43 1010.2
20260505180009 26 179 16.1 33.8 0.00 0.00 0.00 42 1010.5
20260505174505 25 166 16.1 25.7 0.00 0.00 0.00 40 1010.6
20260505173037 25 183 9.7 24.1 0.00 0.00 0.00 44 1010.6
20260505171509 25 187 17.7 30.6 0.00 0.00 0.00 42 1010.7
20260505170013 25 171 16.1 27.4 0.00 0.00 0.00 44 1011.0
20260505164529 25 171 0.0 0.0 0.00 0.00 0.00 46 1011.2
20260505163013 25 163 0.0 0.0 0.00 0.00 0.00 48 1011.2
20260505153016 24 219 0.0 0.0 0.00 0.00 0.00 52 1011.5
20260505151519 23 169 0.0 1.6 0.00 0.00 0.00 53 1011.4
20260505124525 17 188 8.0 16.1 0.00 0.00 0.00 67 1012.5
20260505123020 16 183 6.4 20.9 0.00 0.00 0.00 68 1012.5
20260505121514 16 176 6.4 12.9 0.00 0.00 0.00 71 1012.3
20260505120019 15 180 6.4 16.1 0.00 0.00 0.00 72 1012.1
20260505114531 15 151 4.8 11.3 0.00 0.00 0.00 74 1012.0
20260505111530 14 160 3.2 9.7 0.00 0.00 0.00 75 1011.8
20260505101519 13 199 4.8 8.0 0.00 0.00 0.00 75 1011.1
20260505100020 13 168 4.8 8.0 0.00 0.00 0.00 75 1011.0
20260505094521 13 167 6.4 9.7 0.00 0.00 0.00 74 1011.0
20260505093005 13 166 4.8 11.3 0.00 0.00 0.00 74 1010.9
20260505083034 14 159 6.4 9.7 0.00 0.00 0.00 72 1010.9
20260505081503 14 151 3.2 9.7 0.00 0.00 0.00 72 1010.9
20260505073010 15 160 4.8 8.0 0.00 0.00 0.00 70 1010.6
20260505071510 15 149 3.2 6.4 0.00 0.00 0.00 70 1010.6
20260505064508 15 175 1.6 4.8 0.00 0.00 0.00 69 1010.6
20260505063015 15 176 1.6 4.8 0.00 0.00 0.00 69 1010.8
20260505061525 15 183 3.2 6.4 0.00 0.00 0.00 68 1010.9
20260505060010 15 170 3.2 8.0 0.00 0.00 0.00 68 1010.9
20260505053011 15 160 3.2 8.0 0.00 0.00 0.00 67 1010.8
20260505051512 15 159 3.2 8.0 0.00 0.00 0.00 67 1010.8
20260505034519 15 155 4.8 11.3 0.00 0.00 0.00 63 1010.4
20260505033026 15 163 6.4 11.3 0.00 0.00 0.00 63 1010.4
20260505030011 15 157 4.8 9.7 0.00 0.00 0.00 63 1010.5
20260505024520 15 159 4.8 8.0 0.00 0.00 0.00 64 1010.6
20260505023014 15 162 3.2 8.0 0.00 0.00 0.00 65 1010.6
20260505021526 15 152 3.2 8.0 0.00 0.00 0.00 64 1010.4
20260505020008 15 147 3.2 8.0 0.00 0.00 0.00 64 1010.4
20260505013013 16 155 1.6 8.0 0.00 0.00 0.00 60 1010.5
20260505011513 16 147 3.2 9.7 0.00 0.00 0.00 59 1010.1
20260505004510 16 152 3.2 9.7 0.00 0.00 0.00 59 1009.8
20260505003007 16 145 3.2 8.0 0.00 0.00 0.00 58 1009.8
20260505001519 17 165 4.8 9.7 0.00 0.00 0.00 56 1009.8
20260505000021 17 140 4.8 11.3 0.00 0.00 0.00 56 1009.8
20260504234512 18 159 3.2 9.7 0.00 0.00 0.00 54 1009.8
20260504233014 18 142 4.8 11.3 0.00 0.00 0.00 53 1009.8
20260504231510 19 156 4.8 9.7 0.00 0.00 0.00 51 1009.7
20260504224523 20 320 1.6 9.7 0.00 0.00 0.00 51 1009.8
20260504223012 20 134 3.2 9.7 0.00 0.00 0.00 49 1009.7
20260504221516 21 138 6.4 11.3 0.00 0.00 0.00 47 1009.7
20260504220022 22 142 6.4 17.7 0.00 0.00 0.00 45 1009.6
20260504214514 22 163 9.7 19.3 0.00 0.00 0.00 43 1009.7
20260504211516 22 181 8.0 16.1 0.00 0.00 0.00 46 1009.5
20260504210013 21 165 9.7 25.7 0.00 0.00 0.00 44 1009.6
20260504204524 22 157 6.4 24.1 0.00 0.00 0.00 43 1009.7
20260504203025 21 202 12.9 27.4 0.00 0.00 0.00 46 1009.9
20260504201519 22 159 9.7 17.7 0.00 0.00 0.00 42 1010.1
20260504200019 22 161 11.3 19.3 0.00 0.00 0.00 43 1010.4
20260504194524 21 168 1.6 19.3 0.00 0.00 0.00 45 1010.6
20260504193015 21 177 9.7 16.1 0.00 0.00 0.00 45 1010.8
20260504191517 21 165 14.5 24.1 0.00 0.00 0.00 46 1011.1
20260504190029 21 190 8.0 20.9 0.00 0.00 0.00 45 1011.5